Location: Newark
(51.0500°N, 12.4500°E)
Time: 17:37:27
(UTC+00:00)

Vanguard 1 - Pass Details

Date: 25 February 2020
Orbit: 649 x 3833 km, 34.2° (Epoch: 05 April)

Event Time Altitude Azimuth Distance (km) Brightness Sun altitude
Rises 09:19:01 0° 256° (WSW) 7,832 14.5 24.0°
Reaches altitude 10° 09:25:11 10° 251° (WSW) 6,551 14.2 24.5°
Maximum altitude 09:42:23 40° 192° (SSW) 3,391 13.9 25.9°
Drops below altitude 10° 09:52:55 10° 128° (SE) 4,074 14.4 26.6°
Sets 09:55:45 0° 120° (ESE) 4,715 14.4 26.8°
